Temperature
7 7 7 7 7 7 7 7 7 7 7 7 7 7 7 7 7 7 7 7 7 7 7 6 6 6 6 6 6 6 5 5 5 5 5 5 5 5 5 5 5 5 5
6 6 6 6 6 6 6 6 6 6 7 7 6 6 6 6 6 6 7 7 6 6 6 6 6 6 6 6 5 5 5 4 4 4 4 4 4 4 4 4 5 5 5
6 6 6 6 6 6 6 6 6 6 6 6 6 6 6 6 6 6 6 6 6 6 5 5 5 5 5 5 5 4 4 4 4 3 4 4 3 3 3 4 4 4 4
5 6 6 6 6 6 6 6 6 6 6 6 6 6 6 6 5 5 5 5 5 5 5 5 5 4 4 4 4 4 3 3 3 3 3 3 3 3 3 3 4 4 4
5 5 5 5 5 5 5 5 5 5 5 5 5 5 5 5 5 5 5 5 5 5 4 4 4 4 4 3 3 3 3 3 3 2 2 2 2 2 2 2 2 3 3
5 5 5 5 5 5 5 5 5 5 5 5 5 5 5 5 4 4 4 4 4 4 4 4 4 4 3 3 3 3 3 2 2 2 2 1 1 1 1 1 1 1 2
5 5 5 5 5 5 5 5 5 4 4 4 4 4 4 4 4 4 4 4 4 4 4 4 3 3 3 3 3 3 2 2 2 1 1 1 1 1 0 1 1 1 1
5 5 5 5 5 5 4 4 4 4 4 4 4 4 4 3 3 3 3 3 3 3 3 3 3 3 3 2 2 2 2 2 1 1 1 1 0 0 0 -0 0 0 1
5 5 5 5 4 4 4 4 4 4 3 3 3 3 3 3 3 3 3 3 3 3 3 3 2 2 2 1 1 1 1 1 1 1 1 1 0 0 -0 -0 -0 -0 -0
5 5 5 4 4 4 4 3 3 3 3 3 3 3 3 3 3 3 3 3 3 2 2 2 2 2 1 1 1 1 1 1 0 1 1 0 0 -0 -0 -1 -1 -1 -1
5 5 4 4 4 4 3 3 3 3 3 3 3 3 3 3 3 2 2 2 2 2 2 2 2 1 1 1 0 0 0 -0 -0 0 0 -0 -0 -0 -0 -1 -1 -1 -1
5 5 4 4 4 3 3 3 3 2 2 2 2 2 2 2 2 2 2 2 1 1 1 1 1 1 0 0 0 -0 -0 -0 -0 -1 -1 -1 -1 -0 -1 -1 -1 -1 -1
5 4 4 4 3 3 3 2 2 2 2 2 2 2 2 2 2 2 1 1 1 1 1 1 0 0 -0 -0 -0 -1 -1 -1 -1 -1 -1 -1 -1 -1 -1 -1 -1 -1 -1
5 4 4 3 3 3 3 2 2 2 2 2 2 2 2 2 1 1 1 1 1 1 0 0 0 -0 -0 -1 -1 -1 -1 -1 -2 -2 -2 -2 -2 -2 -2 -2 -2 -2 -2
4 4 4 3 3 3 3 2 2 2 2 1 1 1 1 1 1 1 1 1 0 0 -0 -0 -0 -1 -1 -1 -1 -1 -2 -2 -2 -2 -3 -3 -3 -3 -3 -2 -2 -2 -2
4 4 4 3 3 3 2 2 2 1 1 1 1 1 1 1 0 0 0 -0 -0 -1 -1 -1 -1 -1 -1 -2 -2 -2 -2 -3 -3 -3 -3 -3 -3 -3 -3 -3 -3 -3 -3
4 4 4 3 3 3 2 2 2 1 1 1 0 0 0 0 -0 -0 -0 -1 -1 -1 -1 -1 -1 -1 -2 -2 -2 -3 -3 -3 -3 -4 -4 -4 -4 -4 -4 -4 -3 -3 -3
4 4 3 3 3 2 2 2 1 1 1 1 0 0 -0 -0 -1 -1 -1 -1 -1 -1 -1 -1 -2 -2 -2 -3 -3 -3 -3 -4 -4 -4 -4 -4 -4 -4 -4 -4 -4 -4 -4
3 3 3 3 2 2 2 1 1 1 1 0 0 -0 -0 -1 -1 -1 -1 -1 -1 -2 -2 -2 -2 -3 -3 -3 -3 -3 -4 -4 -4 -4 -4 -4 -5 -5 -5 -5 -4 -4 -4
3 3 3 2 2 2 1 1 1 0 0 0 -0 -0 -1 -1 -1 -2 -2 -2 -2 -2 -2 -2 -3 -3 -3 -4 -4 -4 -4 -4 -4 -5 -5 -5 -5 -5 -5 -5 -5 -5 -5
3 2 2 2 2 1 1 1 0 0 -0 -0 -0 -1 -1 -1 -1 -2 -2 -2 -2 -2 -3 -3 -3 -3 -4 -4 -4 -4 -4 -5 -5 -5 -5 -5 -5 -5 -5 -5 -5 -5 -5
2 2 2 1 1 1 1 0 -0 -0 -1 -1 -1 -1 -2 -2 -2 -2 -2 -2 -3 -3 -3 -3 -3 -4 -4 -4 -4 -5 -5 -5 -5 -5 -6 -6 -6 -6 -6 -6 -6 -5 -5
2 2 1 1 1 0 0 -0 -1 -1 -1 -1 -1 -2 -2 -2 -2 -2 -3 -3 -3 -3 -3 -4 -4 -4 -4 -4 -5 -5 -5 -5 -5 -6 -6 -6 -6 -6 -6 -6 -6 -6 -6
1 1 1 1 0 -0 -0 -1 -1 -1 -2 -2 -2 -2 -2 -2 -3 -3 -3 -3 -3 -3 -4 -4 -4 -4 -5 -5 -5 -5 -5 -6 -6 -6 -6 -6 -6 -6 -6 -6 -6 -6 -6
1 1 1 0 -0 -0 -1 -1 -1 -1 -2 -2 -2 -2 -2 -3 -3 -3 -3 -3 -4 -4 -4 -4 -4 -5 -5 -5 -5 -6 -6 -6 -6 -6 -6 -6 -6 -7 -7 -7 -6 -6 -6
1 0 0 -0 -1 -1 -1 -1 -1 -2 -2 -2 -2 -3 -3 -3 -3 -3 -4 -4 -4 -4 -4 -5 -5 -5 -5 -6 -6 -6 -6 -6 -6 -6 -7 -7 -7 -7 -7 -7 -7 -7 -7
Wind_Speed
3 2 2 2 1 1 1 1 1 1 1 1 1 2 2 2 2 2 2 2 3 2 2 2 1 1 1 1 1 1 2 3 6 5 4 4 5 6 8 9 11 11 12
2 1 1 1 1 1 1 1 1 1 1 1 1 2 2 2 2 3 2 2 3 2 2 2 1 0 0 1 1 2 2 3 4 7 5 4 5 6 7 7 8 10 11
2 2 1 1 1 1 1 0 0 1 0 0 1 2 2 2 2 2 2 2 2 2 2 2 2 1 1 1 2 2 2 3 3 5 6 4 5 5 6 7 7 7 9
2 2 2 2 2 1 1 1 1 1 1 1 1 1 1 2 2 2 2 2 2 2 2 2 2 2 2 2 2 3 3 3 3 4 5 4 5 5 5 6 8 7 8
3 3 3 2 2 2 1 1 1 1 1 1 1 1 1 1 2 3 3 3 3 2 1 1 2 2 2 2 2 3 3 3 3 4 5 5 5 5 5 5 8 8 8
4 4 3 3 3 3 2 2 2 1 1 1 1 2 1 1 2 3 3 3 2 2 1 0 1 1 2 3 4 4 3 3 4 4 4 5 6 6 6 6 7 7 7
4 4 3 3 3 3 2 2 2 2 1 1 1 1 1 1 2 2 2 2 2 2 1 1 1 1 2 2 3 4 4 5 5 5 5 7 7 6 7 7 7 7 8
5 5 4 4 4 3 3 3 3 2 2 2 2 2 1 1 2 2 2 2 2 1 1 1 1 2 2 2 2 2 3 4 4 4 5 6 7 6 6 7 8 8 8
6 6 5 5 5 4 4 4 3 3 2 2 2 2 2 1 2 2 2 1 1 1 1 1 1 2 3 3 2 3 4 4 5 5 6 7 9 9 6 4 5 5 6
8 7 6 6 6 6 5 4 3 3 3 2 2 2 2 2 2 2 1 1 1 1 1 2 3 3 4 4 2 3 4 5 4 5 5 6 6 6 7 4 4 5 5
6 5 5 6 6 5 4 3 3 3 2 2 2 1 2 2 2 2 2 1 2 2 2 2 2 4 5 4 3 3 5 5 3 4 4 4 4 4 5 5 4 4 5
6 6 6 6 5 5 5 4 4 4 3 3 2 1 1 2 2 3 4 3 3 2 3 2 3 4 4 4 3 4 5 4 3 3 4 4 5 5 5 6 6 5 6
7 7 6 6 5 5 5 5 4 4 4 3 3 3 2 2 2 4 4 4 4 2 3 4 4 4 3 2 3 4 4 2 2 3 4 4 4 5 5 5 5 5 5
8 7 6 6 6 5 5 5 5 5 5 4 4 4 3 2 2 2 2 2 2 2 1 2 2 2 1 2 3 3 2 2 2 3 4 4 4 4 4 4 4 5 4
8 8 7 7 7 6 5 5 5 5 6 6 5 4 4 4 4 4 3 2 2 2 1 0 0 1 1 2 2 2 2 3 3 3 3 4 4 4 4 4 4 4 3
8 8 7 6 6 6 5 3 6 6 8 8 7 6 5 6 5 5 4 4 4 3 1 1 1 1 2 2 2 2 2 3 3 3 3 3 4 4 4 4 3 3 4
10 9 7 7 7 7 6 6 5 4 6 7 8 8 7 6 6 5 5 4 4 3 2 2 2 2 2 2 2 2 3 3 3 3 3 3 3 4 4 4 4 4 4
9 9 9 8 7 7 7 7 6 5 4 3 5 7 7 7 6 6 5 3 3 3 2 3 3 2 2 2 2 2 3 3 3 3 3 3 3 3 4 4 4 4 5
8 7 7 7 7 7 6 6 6 6 5 4 2 3 6 6 6 6 5 3 3 3 3 3 3 3 2 2 2 2 2 3 3 3 3 4 3 3 4 4 4 6 4
7 10 9 7 7 7 7 6 6 6 6 5 5 4 4 4 3 4 4 3 3 3 3 3 3 3 3 3 2 2 2 3 3 3 3 4 4 4 4 4 4 4 4
7 8 11 8 7 8 7 7 7 6 6 6 5 6 8 5 5 5 4 4 4 4 4 4 3 3 3 3 2 3 3 3 3 3 3 4 4 4 4 4 4 4 3
7 7 7 7 7 7 7 7 7 6 7 6 4 5 9 5 5 5 5 5 4 4 4 4 4 3 3 3 3 3 3 3 3 3 3 4 4 4 4 4 3 3 3
7 8 7 7 6 9 8 6 7 7 6 6 6 5 5 5 5 5 5 5 4 4 4 4 4 3 3 4 4 4 4 4 4 4 4 4 4 4 4 4 4 3 3
8 8 8 7 7 7 7 7 7 7 7 6 6 6 6 6 6 5 5 4 4 4 4 4 4 5 5 4 4 5 6 6 5 5 4 4 4 4 3 3 4 3 3
7 8 8 8 8 7 7 7 7 7 7 7 7 6 6 6 5 5 4 4 4 4 4 4 4 4 5 6 5 6 7 7 6 4 4 4 4 4 4 4 3 3 2
7 7 7 7 7 7 7 7 7 7 7 7 6 6 6 6 6 5 5 4 4 4 4 4 5 5 6 6 6 7 7 7 7 5 4 3 3 3 3 3 3 3 2
Wind_Direction
258 251 241 230 218 197 193 210 219 210 185 172 177 170 176 181 174 158 158 156 161 170 172 173 187 182 198 229 239 243 254 251 266 281 275 284 287 294 304 303 298 295 295
247 230 226 207 165 164 189 217 203 199 192 184 181 179 187 188 179 170 172 166 171 178 177 165 191 187 200 242 241 251 259 257 259 279 293 296 292 299 300 299 306 302 297
218 199 197 187 173 204 226 227 168 152 141 149 153 163 171 182 175 169 168 167 178 182 178 179 196 180 244 268 272 268 272 277 262 272 289 294 295 302 306 301 300 299 304
201 194 201 206 201 207 199 189 173 147 146 155 146 156 162 168 165 159 150 159 165 175 185 190 198 202 230 256 270 268 275 282 275 274 284 294 294 301 308 308 312 309 305
199 203 210 203 189 186 183 182 165 149 148 138 124 124 139 166 173 158 150 155 161 170 190 207 214 223 237 254 265 266 267 273 279 282 288 299 302 314 312 307 305 309 300
207 213 207 190 185 186 190 177 155 150 139 139 149 143 152 171 173 166 149 149 146 150 167 221 243 230 261 283 289 289 283 274 274 276 287 293 297 296 297 301 303 309 303
213 216 207 195 189 192 189 173 175 176 161 163 171 169 183 196 176 172 162 146 145 162 181 206 284 287 295 285 302 311 301 288 277 270 279 284 290 294 295 294 296 296 286
209 212 207 196 193 191 185 192 198 183 179 189 197 194 190 202 171 165 168 136 141 175 208 220 244 278 289 297 299 303 296 292 291 279 270 281 286 290 287 283 284 286 283
211 210 205 196 192 189 193 198 194 180 183 188 191 187 186 209 181 176 146 131 158 229 250 247 253 269 284 301 299 288 293 294 304 299 294 293 296 298 301 297 300 303 300
214 210 200 193 191 193 196 192 182 175 186 183 189 191 192 212 206 190 159 148 191 249 274 268 265 275 287 299 285 276 288 295 308 316 313 312 307 305 307 289 282 287 298
206 196 192 191 192 191 186 181 173 173 178 185 198 219 211 213 224 219 206 186 212 235 258 275 275 283 287 292 294 279 282 298 298 302 308 311 313 310 307 299 284 272 275
190 193 192 189 189 183 176 178 173 171 178 192 195 232 242 237 234 237 234 233 232 231 249 261 269 280 286 295 304 308 310 313 309 315 319 320 321 317 312 306 295 282 267
188 193 192 186 185 177 176 177 172 174 182 195 197 219 239 234 240 246 250 250 247 245 246 259 276 289 300 314 327 330 333 328 322 318 311 309 308 304 309 311 304 300 296
191 193 187 184 185 182 181 181 182 186 190 196 205 218 227 232 233 236 241 242 240 260 266 271 297 311 333 337 341 341 337 330 326 309 305 304 311 316 318 319 313 315 314
194 194 189 187 186 188 191 194 195 200 193 194 206 208 210 230 235 227 219 215 205 218 219 201 335 321 324 329 330 329 331 336 331 321 310 311 317 318 319 321 313 314 307
196 197 194 189 186 186 187 200 214 209 212 215 214 210 222 227 229 227 231 232 226 213 183 205 237 255 271 291 306 316 323 322 320 316 306 304 310 312 314 322 325 319 313
201 198 191 188 188 187 187 191 200 210 215 220 222 225 228 228 225 224 225 223 218 207 213 213 225 238 256 268 284 296 301 302 304 305 298 298 302 305 311 317 322 321 314
203 199 192 190 189 190 192 192 190 192 201 217 221 222 225 226 221 215 212 204 211 207 216 222 229 237 246 259 270 282 291 298 299 301 300 296 295 297 304 311 313 311 310
200 198 193 188 187 187 187 186 189 193 200 202 197 214 214 215 213 210 198 199 208 217 221 225 229 234 242 250 260 268 279 289 294 294 297 296 290 292 296 301 302 306 305
204 200 189 185 184 185 186 189 194 197 199 200 205 206 189 183 195 204 202 202 210 219 222 226 228 232 239 242 251 264 275 285 291 290 293 296 293 288 288 290 295 301 297
196 196 189 187 190 190 191 195 197 198 202 207 211 206 198 195 202 207 209 210 214 218 221 225 227 232 236 238 244 252 260 271 276 281 286 290 293 295 294 290 290 291 294
189 188 189 192 192 192 194 194 195 199 204 206 206 208 210 203 202 208 215 218 217 217 217 219 226 229 227 226 231 240 250 261 269 278 284 285 288 293 295 294 296 298 297
186 187 190 191 190 195 196 194 196 199 203 204 199 197 200 203 208 212 216 217 214 215 214 214 220 227 227 222 219 226 239 251 258 264 272 280 284 288 290 291 290 290 291
188 189 191 190 189 192 194 196 198 200 201 202 201 202 203 205 208 211 212 211 211 214 213 214 218 223 227 227 227 231 237 245 252 248 254 265 273 278 281 284 285 283 284
189 190 191 191 192 195 196 197 200 200 202 203 203 204 203 203 206 208 207 207 209 214 218 217 216 218 223 231 236 242 251 261 266 257 247 256 263 265 268 276 279 284 280
190 191 192 192 193 195 197 199 201 202 203 204 204 202 200 201 203 203 202 203 208 213 216 216 217 219 226 233 241 251 262 270 272 270 255 244 257 263 267 269 274 274 276
Height
1450 1450 1450 1451 1451 1451 1451 1452 1453 1453 1454 1454 1455 1456 1457 1458 1459 1460 1461 1462 1463 1464 1465 1466 1466 1467 1468 1468 1468 1468 1468 1467 1465 1463 1463 1462 1461 1458 1456 1454 1452 1450 1447
1448 1448 1448 1448 1449 1449 1449 1450 1450 1450 1451 1452 1452 1453 1454 1455 1456 1457 1458 1459 1460 1461 1462 1462 1463 1463 1463 1464 1464 1463 1463 1462 1461 1458 1457 1456 1455 1453 1451 1448 1446 1444 1441
1445 1445 1445 1446 1446 1446 1447 1447 1448 1448 1448 1449 1450 1450 1451 1452 1453 1454 1455 1456 1457 1458 1458 1458 1459 1459 1459 1460 1459 1459 1458 1458 1456 1454 1452 1451 1449 1448 1445 1442 1440 1438 1435
1443 1443 1443 1443 1444 1444 1444 1445 1445 1446 1446 1446 1447 1447 1448 1449 1450 1451 1452 1453 1453 1454 1455 1455 1455 1456 1456 1456 1455 1454 1454 1453 1451 1450 1447 1446 1444 1443 1441 1437 1434 1432 1429
1441 1441 1441 1441 1441 1442 1442 1442 1443 1443 1443 1444 1444 1445 1446 1446 1447 1448 1449 1449 1450 1450 1451 1452 1452 1452 1452 1452 1452 1450 1450 1448 1447 1445 1443 1441 1439 1438 1436 1433 1430 1427 1424
1438 1438 1438 1439 1439 1439 1439 1440 1440 1440 1441 1441 1442 1442 1443 1444 1445 1445 1446 1446 1447 1447 1448 1448 1449 1449 1449 1448 1448 1447 1446 1445 1443 1441 1439 1437 1435 1434 1432 1429 1426 1422 1418
1435 1435 1436 1436 1436 1437 1437 1437 1437 1438 1438 1439 1439 1440 1441 1441 1442 1443 1443 1444 1444 1444 1445 1445 1445 1445 1445 1444 1443 1443 1442 1441 1440 1438 1435 1433 1432 1430 1428 1425 1423 1420 1416
1431 1432 1432 1433 1433 1434 1434 1434 1434 1435 1436 1436 1437 1438 1438 1439 1440 1440 1440 1441 1441 1441 1441 1441 1441 1441 1441 1440 1439 1438 1437 1436 1435 1433 1431 1429 1428 1426 1424 1422 1419 1416 1413
1428 1428 1429 1430 1430 1430 1431 1431 1432 1432 1433 1434 1434 1435 1436 1436 1437 1437 1438 1438 1438 1438 1438 1439 1438 1438 1438 1437 1435 1434 1432 1431 1431 1429 1427 1425 1423 1422 1420 1418 1415 1411 1407
1424 1425 1426 1426 1427 1427 1428 1428 1429 1429 1430 1431 1431 1432 1433 1433 1434 1434 1435 1435 1435 1435 1435 1435 1435 1435 1434 1433 1431 1430 1428 1427 1426 1424 1422 1421 1419 1417 1415 1413 1411 1408 1404
1420 1421 1421 1422 1423 1424 1424 1425 1426 1427 1427 1428 1429 1429 1430 1431 1431 1432 1432 1432 1432 1432 1432 1432 1431 1431 1430 1429 1428 1426 1425 1423 1422 1420 1418 1416 1414 1412 1411 1409 1407 1404 1402
1416 1416 1417 1418 1419 1420 1421 1421 1422 1423 1424 1425 1425 1426 1427 1427 1428 1428 1428 1428 1428 1428 1428 1428 1428 1427 1426 1425 1424 1422 1421 1420 1418 1416 1414 1412 1410 1408 1406 1405 1403 1401 1398
1411 1411 1413 1414 1415 1416 1417 1418 1419 1420 1421 1421 1422 1422 1423 1424 1424 1425 1425 1425 1425 1425 1424 1424 1424 1424 1423 1422 1421 1419 1418 1416 1414 1412 1410 1408 1406 1404 1402 1401 1399 1397 1394
1405 1407 1408 1409 1411 1412 1413 1414 1415 1416 1417 1418 1418 1419 1420 1420 1421 1421 1421 1421 1421 1421 1421 1421 1421 1420 1419 1419 1417 1416 1414 1412 1410 1408 1406 1404 1403 1401 1399 1397 1395 1392 1390
1400 1402 1403 1405 1406 1408 1409 1410 1411 1413 1414 1414 1415 1416 1416 1416 1417 1418 1417 1417 1418 1418 1418 1417 1417 1416 1416 1415 1414 1412 1411 1409 1407 1405 1403 1401 1399 1398 1396 1394 1392 1389 1387
1394 1396 1398 1399 1401 1403 1404 1406 1407 1409 1410 1410 1411 1412 1412 1413 1413 1414 1414 1414 1414 1414 1414 1413 1413 1413 1412 1411 1410 1409 1407 1406 1404 1402 1400 1398 1397 1395 1393 1392 1390 1387 1385
1389 1390 1392 1394 1396 1397 1399 1400 1402 1404 1405 1406 1407 1407 1408 1409 1409 1409 1410 1410 1411 1411 1410 1409 1409 1409 1408 1408 1407 1406 1404 1403 1401 1399 1397 1396 1394 1392 1391 1389 1387 1385 1383
1383 1385 1386 1388 1390 1392 1394 1395 1397 1398 1399 1400 1402 1403 1404 1404 1405 1405 1406 1406 1406 1406 1406 1406 1405 1405 1405 1404 1403 1402 1401 1399 1398 1396 1394 1393 1391 1390 1388 1386 1385 1383 1381
1377 1379 1380 1382 1384 1386 1388 1390 1392 1393 1394 1395 1397 1398 1399 1400 1401 1401 1402 1402 1402 1402 1402 1402 1402 1401 1401 1400 1399 1398 1397 1396 1394 1393 1391 1389 1388 1386 1385 1383 1382 1381 1379
1371 1373 1375 1377 1379 1381 1383 1384 1386 1387 1389 1390 1391 1393 1394 1395 1395 1396 1397 1398 1398 1398 1398 1398 1398 1398 1397 1396 1396 1395 1393 1392 1391 1389 1388 1386 1385 1383 1382 1380 1379 1378 1376
1366 1367 1369 1371 1372 1374 1376 1378 1380 1382 1383 1385 1386 1388 1389 1390 1390 1391 1392 1393 1393 1394 1394 1394 1394 1393 1393 1392 1392 1391 1389 1388 1387 1386 1385 1383 1382 1380 1379 1378 1376 1375 1374
1360 1361 1363 1365 1367 1369 1371 1373 1375 1376 1378 1380 1381 1383 1384 1384 1385 1386 1387 1388 1389 1389 1389 1389 1389 1389 1389 1388 1388 1387 1385 1384 1383 1382 1381 1380 1378 1377 1376 1374 1373 1372 1371
1354 1355 1357 1359 1361 1363 1365 1367 1369 1371 1372 1374 1376 1377 1378 1379 1380 1381 1382 1383 1384 1384 1384 1385 1385 1385 1384 1384 1384 1383 1382 1381 1380 1379 1377 1376 1375 1374 1372 1371 1370 1370 1369
1348 1350 1351 1353 1355 1357 1359 1361 1363 1365 1367 1368 1370 1371 1373 1374 1375 1376 1377 1378 1379 1379 1379 1380 1380 1380 1380 1380 1379 1379 1378 1377 1376 1375 1374 1373 1372 1371 1370 1369 1368 1367 1366
1343 1344 1346 1348 1350 1352 1353 1355 1357 1359 1360 1362 1364 1366 1367 1369 1370 1371 1372 1373 1374 1374 1375 1375 1375 1375 1375 1375 1375 1374 1374 1373 1372 1371 1370 1369 1368 1368 1367 1366 1365 1364 1364
1337 1339 1340 1342 1344 1346 1348 1349 1351 1353 1354 1356 1358 1360 1362 1363 1365 1366 1367 1368 1369 1370 1370 1370 1370 1371 1371 1371 1370 1370 1370 1369 1368 1367 1367 1366 1365 1364 1364 1363 1363 1362 1361